Regional Weather Roundup
Issued by NWS Northern Indiana

Home | Current Version | Previous Version | Graphics & Text | Print | Product List | Glossary On
Versions: 1 2 3 4 5 6 7 8 9 10 11 12 13 14 15 16 17 18 19 20 21 22 23 24 25 26 27 28 29 30 31 32 33 34 35 36 37 38 39 40 41 42 43 44 45 46 47 48 49 50
000
ASUS43 KIWX 252300
RWRIWX

KIWX WEATHER ROUNDUP
NATIONAL WEATHER SERVICE NORTHERN INDIANA
700 PM EDT THU MAY 25 2017

NOTE: "FAIR" INDICATES FEW OR NO CLOUDS BELOW 12,000 FEET WITH NO
SIGNIFICANT WEATHER AND/OR OBSTRUCTIONS TO VISIBILITY.

* THESE STATIONS ARE NOT UNDER NWS QUALITY CONTROL. THEY ALSO MAY NOT
  REPORT WEATHER SUCH AS PRECIPITATION OR FOG.

INZ001>027-260000-
NORTHERN INDIANA

CITY           SKY/WX    TMP DP  RH WIND       PRES   REMARKS
GARY*          PTSUNNY   59  52  77 N14       29.69R
MICHIGAN CITY* MOSUNNY   54  50  87 NW9       29.68R
SOUTH BEND     MOSUNNY   59  53  80 NW9       29.65R
ELKHART*       PTSUNNY   61  54  77 NW12      29.62R
GOSHEN         CLOUDY    61  54  77 NW14      29.61S
MONTICELLO*    CLOUDY    63  55  75 NW12      29.67R
FORT WAYNE     CLOUDY    62  56  80 W10       29.61R
PERU/GRISSOM   CLOUDY    62  56  82 NW16      29.64R

$$
INZ028>050-260000-
CENTRAL INDIANA

CITY           SKY/WX    TMP DP  RH WIND       PRES   REMARKS
LAFAYETTE      CLOUDY    63  56  78 W8        29.67R
KOKOMO*        CLOUDY    62  55  77 NW13      29.66R
MUNCIE*        CLOUDY    61  55  81 NW14G22   29.63R
INDIANAPOLIS   CLOUDY    64  55  72 W18       29.67R

$$
MIZ043>046-050>051-056>058-064>065-071>073-077>080-260000-
SOUTHWEST LOWER MICHIGAN

CITY           SKY/WX    TMP DP  RH WIND       PRES   REMARKS
BATTLE CREEK   CLOUDY    64  57  78 NW6       29.59R
BENTON HARBOR  PTSUNNY   54  49  83 W5        29.64R
COLDWATER*     CLOUDY    62  58  88 NW6       29.58R
HILLSDALE*     CLOUDY    59  54  82 NW10      29.57R
HOLLAND        MOSUNNY   63  53  70 NW9       29.61R
GRAND RAPIDS   CLOUDY    65  56  72 NW12      29.58R
KALAMAZOO      CLOUDY    63  54  72 W8        29.60R
STURGIS*       CLOUDY    61  56  85 NW6       29.59R
THREE RIVERS*  CLOUDY    62  55  79 NW15      29.61R

$$
OHZ001>008-015>018-024>025-260000-
NORTHWEST OHIO

CITY           SKY/WX    TMP DP  RH WIND       PRES   REMARKS
DEFIANCE       CLOUDY    62  56  80 NW9       29.57R
FINDLAY        CLOUDY    65  56  72 NW10      29.54R
TOLEDO EXPRESS CLOUDY    62  58  86 NW12      29.54R
TOLEDO METCALF CLOUDY    64  59  83 NW12      29.53R
LIMA           CLOUDY    62  60  93 NW15      29.56R

$$
AND FOR LAKE MICHIGAN COASTAL AND OPEN LAKE BUOY OBSERVATIONS

STATION/POSITION TEMP    WIND        PRES    VSBY  WAVE
                 AIR SEA DIR/SP/G                  HT/PER
                 (F)     (DEG/KT/KT) (MB)    (MI)  (FT/S)
CALUMET HARBOR    55     330/ 11/ 15 1004.8R
MICHIGAN CITY     51     290/  6/  7   N/A
BURNS HARBOR      52     320/  8/ 10 1005.4R
SOUTH LAKE BUOY   47 45  350/ 14/ 16 1003.6          3/ 5
4 MI NW BRIDGMAN  51 55  330/  8/ 10 1004.6R         4/ 5
MICHIGAN CITY     49 51  320/ 10/ 14   N/A           3/ 5

$$
&&




USA.gov is the U.S. government's official web portal to all federal, state and local government web resources and services.